FW6634 Weather Reports


time (UTC)temp
C
wind
direction
speed
KPH
gust
KPH
rain 1hr
cm
rain 24hr
cm
rain mn
cm
humidity
%
barometer
mb
20260508010601 10 149 0.0 0.0 0.00 0.41 0.36 98 1012.8
20260508010002 10 149 0.0 0.0 0.00 0.41 0.36 98 1012.9
20260508005102 10 149 0.0 0.0 0.00 0.41 0.36 97 1012.8
20260508004501 10 149 0.0 0.0 0.00 0.41 0.36 97 1012.8
20260508003601 11 149 0.0 0.0 0.00 0.41 0.36 96 1012.8
20260508003001 11 149 0.0 0.0 0.00 0.41 0.36 96 1012.8
20260508002101 11 149 0.0 0.0 0.00 0.41 0.36 96 1012.7
20260508001500 11 149 0.0 0.0 0.00 0.41 0.36 95 1012.5
20260508000601 12 149 0.0 0.0 0.00 0.41 0.36 95 1012.4
20260508000003 12 149 0.0 0.0 0.00 0.41 0.36 94 1012.4
20260507235700 12 149 0.0 0.0 0.00 0.41 0.36 94 1012.4
20260507235108 12 149 0.0 0.0 0.00 0.41 0.36 94 1012.3
20260507234502 12 149 0.0 0.0 0.00 0.41 0.36 93 1012.2
20260507233601 13 149 0.0 0.0 0.00 0.41 0.36 92 1012.2
20260507233004 13 149 0.0 3.2 0.00 0.41 0.36 92 1012.0
20260507232100 13 156 0.0 1.6 0.00 0.41 0.36 94 1012.0
20260507231501 13 141 0.0 1.6 0.00 0.41 0.36 96 1011.9
20260507230601 12 136 0.0 1.6 0.00 0.41 0.36 95 1011.9
20260507230006 12 132 0.0 1.6 0.00 0.41 0.36 94 1011.9
20260507225101 12 129 0.0 1.6 0.00 0.41 0.36 95 1012.0
20260507224504 12 129 0.0 1.6 0.00 0.41 0.36 94 1011.9
20260507223601 12 129 0.0 0.0 0.00 0.41 0.36 93 1011.9
20260507223001 12 128 0.0 0.0 0.00 0.41 0.36 92 1012.1
20260507222100 13 129 0.0 1.6 0.00 0.41 0.36 92 1012.0
20260507221501 13 129 0.0 1.6 0.00 0.41 0.36 93 1012.0
20260507220601 13 122 0.0 1.6 0.00 0.41 0.36 92 1011.9
20260507220004 13 122 0.0 1.6 0.00 0.41 0.36 93 1011.9
20260507215101 12 207 0.0 1.6 0.00 0.41 0.36 92 1011.8
20260507214501 13 95 0.0 6.4 0.00 0.41 0.36 91 1011.6
20260507213601 13 86 0.0 1.6 0.00 0.41 0.36 91 1011.3
20260507213001 13 95 0.0 1.6 0.00 0.41 0.36 91 1011.5
20260507212103 13 162 0.0 3.2 0.03 0.41 0.36 92 1011.5
20260507211501 13 86 0.0 3.2 0.03 0.41 0.36 91 1011.6
20260507210602 13 54 0.0 3.2 0.03 0.41 0.36 91 1011.6
20260507210004 13 130 0.0 3.2 0.05 0.41 0.36 93 1011.5
20260507205102 12 176 1.6 4.8 0.08 0.41 0.36 92 1011.6
20260507204500 12 38 0.0 4.8 0.08 0.41 0.36 93 1011.7
20260507203604 12 36 0.0 3.2 0.08 0.41 0.36 94 1011.7
20260507203005 12 28 0.0 3.2 0.08 0.41 0.36 94 1011.6
20260507202100 12 72 0.0 3.2 0.05 0.38 0.33 93 1012.1
20260507201502 12 6 0.0 3.2 0.10 0.38 0.33 93 1012.3
20260507200600 12 129 0.0 4.8 0.08 0.36 0.30 93 1011.9
20260507200004 12 339 0.0 8.0 0.08 0.36 0.30 92 1012.2
20260507195101 12 73 3.2 8.0 0.05 0.33 0.28 93 1012.0
20260507194502 12 21 3.2 9.7 0.05 0.33 0.28 93 1012.1
20260507194200 12 26 1.6 9.7 0.05 0.33 0.28 92 1012.1
20260507193601 12 22 1.6 9.7 0.05 0.33 0.28 92 1012.3
20260507193001 12 21 3.2 9.7 0.08 0.33 0.28 91 1012.4
20260507192103 12 123 0.0 9.7 0.08 0.33 0.28 93 1012.1
20260507191503 12 57 3.2 9.7 0.03 0.28 0.23 92 1012.2
20260507190601 12 51 3.2 11.3 0.03 0.28 0.23 92 1012.3
20260507190003 12 52 4.8 11.3 0.03 0.28 0.23 92 1012.3
20260507185702 12 63 4.8 11.3 0.03 0.28 0.23 92 1012.2
20260507185100 12 66 1.6 12.9 0.03 0.28 0.23 93 1012.3
20260507184200 12 28 6.4 11.3 0.03 0.28 0.23 90 1012.4
20260507183559 12 6 3.2 9.7 0.00 0.25 0.20 87 1012.4
20260507182701 13 12 4.8 11.3 0.00 0.25 0.20 86 1012.2
20260507182100 13 34 4.8 11.3 0.00 0.25 0.20 86 1012.2
20260507181200 13 49 3.2 12.9 0.00 0.25 0.20 86 1012.2
20260507180603 13 45 4.8 12.9 0.00 0.25 0.20 85 1012.2
20260507180002 13 60 4.8 19.3 0.00 0.25 0.20 84 1012.1
20260507175700 13 1 6.4 19.3 0.00 0.28 0.20 84 1012.1
20260507175100 13 4 4.8 16.1 0.00 0.28 0.20 83 1012.0
20260507174501 13 68 1.6 8.0 0.00 0.28 0.20 84 1012.0
20260507174200 13 92 3.2 12.9 0.00 0.28 0.20 85 1012.0
20260507173600 13 77 4.8 12.9 0.00 0.28 0.20 85 1012.1
20260507172700 12 90 3.2 11.3 0.00 0.28 0.20 85 1012.2
20260507172100 13 64 1.6 12.9 0.00 0.28 0.20 86 1012.2
20260507171200 12 13 6.4 22.5 0.00 0.28 0.20 85 1012.2
20260507170600 13 354 8.0 22.5 0.00 0.28 0.20 84 1012.5
20260507170004 13 198 3.2 12.9 0.00 0.28 0.20 84 1012.7
20260507165702 13 43 3.2 24.1 0.00 0.28 0.20 85 1012.6
20260507165101 13 30 6.4 24.1 0.00 0.28 0.20 86 1012.7
20260507164200 12 360 6.4 14.5 0.00 0.28 0.20 86 1012.6
20260507163600 13 23 3.2 17.7 0.00 0.28 0.20 87 1012.7
20260507162700 13 349 1.6 12.9 0.00 0.28 0.20 87 1012.8
20260507162101 13 56 4.8 12.9 0.00 0.28 0.20 87 1012.6
20260507161200 13 35 3.2 17.7 0.00 0.28 0.20 88 1012.9
20260507160600 13 338 3.2 9.7 0.00 0.28 0.20 90 1013.0
20260507160002 13 40 1.6 9.7 0.00 0.28 0.20 89 1013.2
20260507155659 13 69 3.2 11.3 0.00 0.38 0.20 88 1013.2
20260507155100 13 16 4.8 11.3 0.00 0.38 0.20 88 1013.0
20260507153601 13 38 4.8 14.5 0.00 0.38 0.20 88 1012.5
20260507152700 13 46 8.0 19.3 0.00 0.38 0.20 87 1012.6
20260507152100 13 319 6.4 16.1 0.00 0.38 0.20 88 1012.7
20260507151159 13 71 8.0 17.7 0.00 0.38 0.20 89 1012.6
20260507150600 13 52 8.0 17.7 0.00 0.38 0.20 88 1012.5
20260507150002 13 41 8.0 19.3 0.00 0.38 0.20 89 1012.4
20260507145059 13 33 6.4 17.7 0.00 0.61 0.20 91 1012.4
20260507143601 12 308 6.4 16.1 0.00 0.61 0.20 92 1012.3
20260507142700 12 36 4.8 17.7 0.00 0.61 0.20 93 1012.2
20260507142059 12 51 4.8 12.9 0.00 0.61 0.20 94 1012.7
20260507141200 12 26 4.8 11.3 0.00 0.61 0.20 95 1012.6
20260507140603 12 26 4.8 12.9 0.00 0.61 0.20 94 1012.6
20260507140001 12 20 4.8 12.9 0.00 0.61 0.20 94 1012.2
20260507135659 12 58 6.4 11.3 0.00 0.64 0.20 94 1012.7
20260507135100 12 348 6.4 12.9 0.00 0.64 0.20 94 1012.6
20260507134200 12 37 3.2 14.5 0.00 0.64 0.20 96 1012.8
20260507133601 12 37 4.8 17.7 0.00 0.64 0.20 95 1012.7
20260507132701 12 321 3.2 11.3 0.00 0.64 0.20 95 1012.9
20260507132059 12 79 1.6 9.7 0.00 0.64 0.20 96 1012.9
20260507131201 12 116 3.2 14.5 0.00 0.64 0.20 95 1013.1
20260507130559 12 110 1.6 14.5 0.00 0.64 0.20 95 1012.9
20260507130002 12 64 8.0 19.3 0.00 0.64 0.20 95 1013.1
20260507125659 13 324 4.8 19.3 0.00 0.64 0.20 95 1012.8
20260507125101 13 49 4.8 14.5 0.00 0.64 0.20 96 1012.6
20260507124201 13 71 6.4 20.9 0.05 0.64 0.20 95 1012.1
20260507123600 13 80 8.0 19.3 0.05 0.64 0.20 96 1012.0
20260507122700 15 57 4.8 16.1 0.05 0.64 0.20 98 1012.1
20260507122059 16 94 4.8 22.5 0.05 0.64 0.20 99 1011.9
20260507121203 17 60 4.8 12.9 0.05 0.64 0.20 100 1011.8
20260507120604 17 2 0.0 4.8 0.05 0.64 0.20 100 1011.8
20260507120005 17 39 0.0 4.8 0.05 0.64 0.20 100 1011.7
20260507115701 17 23 0.0 3.2 0.05 0.64 0.20 100 1011.4
20260507115059 17 350 0.0 1.6 0.03 0.61 0.18 100 1011.7
20260507114159 17 68 0.0 1.6 0.00 0.58 0.15 100 1011.5
20260507113600 17 67 0.0 1.6 0.00 0.58 0.15 100 1011.8
20260507112659 17 77 0.0 1.6 0.00 0.58 0.15 100 1011.7
20260507112101 17 161 0.0 0.0 0.00 0.58 0.15 100 1011.7
20260507111201 17 161 0.0 0.0 0.00 0.58 0.15 100 1011.6
20260507110559 17 161 0.0 0.0 0.00 0.58 0.15 100 1011.6
20260507110002 17 161 0.0 0.0 0.00 0.58 0.15 100 1011.5
20260507105700 17 161 0.0 0.0 0.00 0.58 0.15 100 1011.4
20260507105101 17 161 0.0 0.0 0.00 0.58 0.15 100 1011.3
20260507104200 17 160 0.0 0.0 0.00 0.58 0.15 100 1011.1
20260507103601 17 160 0.0 0.0 0.00 0.58 0.15 100 1011.1
20260507102701 17 160 0.0 0.0 0.03 0.58 0.15 100 1011.1
20260507102059 17 160 0.0 0.0 0.03 0.58 0.15 100 1011.1
20260507101201 17 160 0.0 0.0 0.03 0.58 0.15 100 1010.9
20260507100559 17 161 0.0 0.0 0.03 0.58 0.15 100 1011.2
20260507100003 17 161 0.0 0.0 0.03 0.58 0.15 100 1010.8
20260507095700 17 160 0.0 0.0 0.03 0.58 0.15 100 1010.8
20260507095103 17 160 0.0 0.0 0.03 0.58 0.15 100 1010.6
20260507094159 17 160 0.0 1.6 0.03 0.58 0.15 100 1010.9
20260507093559 17 160 0.0 1.6 0.03 0.58 0.15 100 1011.0
20260507092700 17 276 0.0 1.6 0.00 0.56 0.13 100 1011.2
20260507092059 17 276 0.0 1.6 0.00 0.56 0.13 100 1011.3
20260507091200 17 276 0.0 1.6 0.00 0.56 0.13 100 1011.1
20260507090559 17 274 0.0 0.0 0.00 0.56 0.13 100 1011.0
20260507090006 17 274 0.0 0.0 0.00 0.56 0.13 100 1011.0
20260507085700 17 274 0.0 0.0 0.00 0.56 0.13 100 1011.4
20260507085059 17 274 0.0 0.0 0.00 0.56 0.13 100 1011.7
20260507084159 17 274 0.0 0.0 0.00 0.56 0.13 100 1011.4
20260507083559 17 274 0.0 0.0 0.00 0.56 0.13 100 1011.3
20260507082658 17 274 0.0 0.0 0.00 0.56 0.13 100 1011.4
20260507082103 17 274 0.0 1.6 0.00 0.56 0.13 100 1011.4
20260507081201 17 274 0.0 1.6 0.00 0.56 0.13 100 1011.1
20260507080559 17 269 0.0 1.6 0.00 0.56 0.13 100 1010.9
20260507080006 17 266 0.0 1.6 0.00 0.56 0.13 100 1010.8
20260507075700 17 266 0.0 1.6 0.00 0.56 0.13 100 1010.9
20260507075059 17 243 0.0 6.4 0.00 0.56 0.13 100 1010.7
20260507074158 17 219 0.0 0.0 0.00 0.56 0.13 100 1010.7
20260507073559 17 219 0.0 0.0 0.00 0.56 0.13 100 1010.5
20260507072659 17 219 0.0 0.0 0.00 0.56 0.13 100 1010.6
20260507072101 17 219 0.0 0.0 0.00 0.56 0.13 100 1010.5
20260507071159 17 219 0.0 1.6 0.00 0.56 0.13 100 1010.4
20260507070559 17 37 0.0 0.0 0.00 0.56 0.13 100 1010.6
20260507070003 17 37 0.0 0.0 0.00 0.56 0.13 100 1010.4
20260507065658 17 37 0.0 1.6 0.00 0.56 0.13 100 1010.4
20260507065059 17 1 0.0 1.6 0.00 0.56 0.13 100 1010.8
20260507064159 17 159 0.0 1.6 0.00 0.56 0.13 100 1010.8
20260507063559 17 160 0.0 0.0 0.00 0.56 0.13 100 1011.2
20260507062659 17 155 0.0 0.0 0.00 0.56 0.13 100 1011.3
20260507062100 17 155 0.0 0.0 0.00 0.56 0.13 100 1011.2
20260507061159 17 155 0.0 0.0 0.00 0.56 0.13 99 1011.5
20260507060559 17 155 0.0 0.0 0.00 0.56 0.13 99 1011.7
20260507060002 17 155 0.0 1.6 0.00 0.56 0.13 99 1011.6
20260507055700 17 155 0.0 1.6 0.00 0.56 0.13 99 1011.6
20260507055059 17 133 0.0 1.6 0.00 0.56 0.13 99 1011.6
20260507054200 17 189 0.0 3.2 0.00 0.56 0.13 99 1011.7
20260507053559 17 200 0.0 1.6 0.00 0.56 0.13 99 1011.8
20260507052059 17 155 0.0 1.6 0.05 0.56 0.13 99 1011.6
20260507051159 17 236 0.0 0.0 0.08 0.56 0.13 99 1011.7
20260507050559 18 236 0.0 3.2 0.10 0.56 0.13 98 1011.6
20260507050010 18 121 0.0 3.2 0.13 0.56 0.13 98 1011.4
20260507045101 18 229 0.0 1.6 0.15 0.56 0.13 98 1012.1
20260507044200 18 255 0.0 3.2 0.18 0.56 0.13 98 1012.2
20260507043600 18 321 1.6 3.2 0.18 0.56 0.13 98 1012.2
20260507042703 18 142 0.0 3.2 0.15 0.53 0.10 98 1012.3
20260507042101 18 140 0.0 8.0 0.13 0.51 0.08 97 1012.9
20260507041200 18 157 3.2 12.9 0.10 0.48 0.05 97 1013.1
20260507040601 18 98 0.0 6.4 0.08 0.46 0.03 95 1013.2
20260507040006 18 172 1.6 6.4 0.05 0.43 0.00 94 1013.2
20260507035101 19 262 0.0 8.0 0.03 0.41 0.41 93 1013.5
20260507034500 19 221 0.0 8.0 0.00 0.38 0.38 92 1013.4
20260507033602 19 256 0.0 8.0 0.00 0.38 0.38 91 1013.3
20260507033004 19 271 3.2 8.0 0.00 0.38 0.38 91 1012.9
20260507032103 19 247 3.2 8.0 0.00 0.38 0.38 92 1012.4
20260507031501 18 252 0.0 8.0 0.00 0.38 0.38 93 1012.4
20260507030601 18 196 0.0 4.8 0.00 0.38 0.38 94 1012.2
20260507030003 18 175 0.0 3.2 0.00 0.38 0.38 95 1012.1
20260507025100 18 167 0.0 8.0 0.00 0.38 0.38 95 1012.1
20260507024501 18 122 0.0 1.6 0.00 0.38 0.38 95 1012.3
20260507023601 18 162 0.0 1.6 0.00 0.38 0.38 95 1012.2
20260507023001 18 139 0.0 0.0 0.00 0.38 0.38 94 1012.4
20260507022101 18 139 0.0 0.0 0.00 0.38 0.38 94 1012.1
20260507021502 18 139 0.0 1.6 0.00 0.38 0.38 94 1011.9
20260507020602 18 127 0.0 0.0 0.00 0.38 0.38 93 1012.1
20260507020004 18 127 0.0 1.6 0.00 0.38 0.38 93 1012.2
20260507015700 18 127 0.0 1.6 0.00 0.38 0.38 93 1011.9
20260507015106 18 123 0.0 1.6 0.00 0.38 0.38 93 1011.9
20260507013602 18 129 0.0 1.6 0.00 0.38 0.38 95 1012.1
20260507013001 18 214 0.0 0.0 0.00 0.38 0.38 95 1012.2
20260507012104 18 215 0.0 1.6 0.00 0.38 0.38 95 1012.4
20260507011502 18 215 0.0 1.6 0.00 0.38 0.38 95 1012.3